Regional Weather Roundup
Issued by NWS Goodland, KS

Home | Current Version | Previous Version | Graphics & Text | Print | Product List | Glossary On
Versions: 1 2 3 4 5 6 7 8 9 10 11 12 13 14 15 16 17 18 19 20 21 22 23 24 25 26 27 28 29 30 31 32 33 34 35 36 37 38 39 40 41 42 43 44 45 46 47 48 49 50
000
ASUS43 KGLD 101759
RWRGLD

GOODLAND FORECAST AREA HOURLY WEATHER ROUNDUP
NATIONAL WEATHER SERVICE GOODLAND KS
1100 AM MST SAT DEC 10 2016

...OFFICIAL OBSERVATIONS...

CITY           SKY/WX    TMP DP  RH WIND       PRES   REMARKS
GOODLAND KS    CLOUDY    31  25  78 S13       29.89F
HILL CITY KS   CLOUDY    33  20  58 S14       30.04F
IMPERIAL NEB   CLOUDY    24  18  77 SE12      29.92F WCI  13
MCCOOK NEB     CLOUDY    25  19  78 S8        30.01F
AKRON CO       CLOUDY    33  23  66 SW5       29.83F
BURLINGTON CO  CLOUDY    45  27  49 S14       29.86F
LIMON CO       CLOUDY    48  23  37 E5        29.86F
$$

...UNOFFICIAL OBSERVATIONS...

CITY           SKY/WX    TMP DP  RH WIND       PRES   REMARKS
COLBY KS       CLOUDY    27  25  93 S12       29.96F WCI  16
LENORA KS        N/A     30  32 100 MISG        N/A
NORTON KS      SUNNY     30  18  59 S14       30.03F WCI  20
SHARON SPRINGS   N/A     29  26  89 S12         N/A  WCI  19
TRENTON NEB      N/A     25  32 100 S6          N/A
KIT CARSON CO    N/A     34  25  70 CALM        N/A
YUMA CO        FAIR      27  19  74 CALM      29.86F
$$




USA.gov is the U.S. government's official web portal to all federal, state and local government web resources and services.